Fairbanks Ft. Wainwright, AK

12:38 AM AKST on December 18, 2017 (GMT -0900)
Ladd Army Air Field

Weather History for PAFB - November, 2012

Change the Weather History Date:

Saturday, November 10, 2012

  Actual Average Record
Temperature  
Mean Temperature 18 °F -  
Max Temperature 21 °F 12 °F 37 °F (2014)
Min Temperature 16 °F 2 °F -4 °F (1998)
Degree Days  
Heating Degree Days 46    
Moisture  
Dew Point 16 °F    
Average Humidity 88    
Maximum Humidity 96    
Minimum Humidity 81    
Precipitation  
Precipitation 0.09 in - - ()
Sea Level Pressure  
Sea Level Pressure 29.72 in    
Wind  
Wind Speed 0 mph (NNW)    
Max Wind Speed 5 mph    
Max Gust Speed -    
Visibility 4 miles    
Events Snow    
Averages and records for this station are not official NWS values.
T = Trace of Precipitation, MM = Missing Value Source: NWS Daily Summary

Daily Weather History Graph

Daily Weather History Graph

Search for Another Location

Airport or City:

Trip Planner

Search our weather history database for the weather conditions in past years. The results will help you decide how hot, cold, wet, or windy it might be!

Date:

Astronomy

Nov. 10, 2012 Rise Set
Actual Time 9:11 AM AKST 3:56 PM AKST
Civil Twilight 8:11 AM AKST 4:56 PM AKST
Nautical Twilight 7:09 AM AKST 5:57 PM AKST
Astronomical Twilight 6:12 AM AKST 6:55 PM AKST
Moon 4:12 AM AKST (11/10) 2:52 PM AKST (11/10)
Length of Visible Light 8h 45m
Length of Day
6h 45m
Waning Crescent, 13% of the Moon is Illuminated
Nov 10
Waning Crescent
Nov 13
New
Nov 20
First Quarter
Nov 28
Full
Dec 6
Last Quarter

Hourly Weather History & Observations

Time (AKST) Temp. Windchill Dew Point Humidity Pressure Visibility Wind Dir Wind Speed Gust Speed Precip Events Conditions
12:56 AM 16.0 °F - 10.9 °F 81% 29.81 in 10.0 mi Calm Calm - 0.00 in   Overcast
1:56 AM 16.0 °F - 12.0 °F 84% 29.80 in 7.0 mi Calm Calm - 0.00 in   Overcast
2:56 AM 17.1 °F - 12.9 °F 84% 29.78 in 10.0 mi Calm Calm - N/A   Overcast
3:56 AM 18.0 °F - 14.0 °F 84% 29.77 in 9.0 mi Calm Calm - 0.00 in Snow Light Snow
4:56 AM 18.0 °F - 14.0 °F 84% 29.76 in 10.0 mi Calm Calm - 0.00 in   Overcast
5:54 AM 17.6 °F - 14.0 °F 86% 29.72 in - Calm Calm - 0.00 in Snow Light Snow
5:56 AM 18.0 °F - 15.1 °F 88% 29.75 in 2.5 mi Calm Calm - 0.00 in Snow Light Snow
6:10 AM 17.6 °F - 14.0 °F 86% 29.72 in 1.5 mi Calm Calm - 0.00 in Snow Light Snow
6:56 AM 18.0 °F - 15.1 °F 88% 29.74 in 1.8 mi Calm Calm - 0.02 in Snow Light Snow
7:20 AM 17.6 °F - 15.8 °F 93% 29.71 in - Calm Calm - 0.00 in Snow Light Snow
7:48 AM 17.6 °F - 14.0 °F 86% 29.70 in - Calm Calm - 0.01 in Snow Light Snow
7:56 AM 18.0 °F - 14.0 °F 84% 29.74 in 3.0 mi Calm Calm - 0.01 in Snow Light Snow
8:56 AM 18.0 °F - 14.0 °F 84% 29.74 in 4.0 mi Calm Calm - 0.00 in Snow Light Snow
9:32 AM 17.6 °F - 15.8 °F 93% 29.71 in - Calm Calm - 0.00 in Snow Light Snow
9:41 AM 17.6 °F - 15.8 °F 93% 29.71 in 1.5 mi Calm Calm - 0.00 in Snow Light Snow
9:52 AM 17.6 °F - 15.8 °F 93% 29.70 in 1.5 mi Calm Calm - 0.00 in Snow Light Snow
9:56 AM 18.0 °F - 15.1 °F 88% 29.74 in 1.5 mi Calm Calm - 0.01 in Snow Light Snow
10:08 AM 17.6 °F - 15.8 °F 93% 29.70 in 1.8 mi Calm Calm - 0.00 in Snow Light Snow
10:16 AM 19.4 °F - 15.8 °F 86% 29.70 in - Calm Calm - 0.00 in Snow Light Snow
10:31 AM 19.4 °F - 15.8 °F 86% 29.70 in 1.2 mi Calm Calm - 0.00 in Snow Light Snow
10:39 AM 19.4 °F - 15.8 °F 86% 29.70 in 1.5 mi Calm Calm - 0.00 in Snow Light Snow
10:56 AM 19.0 °F - 16.0 °F 88% 29.74 in 1.2 mi Calm Calm - 0.00 in Snow Light Snow
11:56 AM 19.9 °F - 17.1 °F 89% 29.74 in 1.2 mi Calm Calm - 0.02 in Snow Light Snow
12:08 PM 19.4 °F - 17.6 °F 93% 29.71 in - Calm Calm - 0.00 in Snow Light Snow
12:15 PM 19.4 °F - 17.6 °F 93% 29.70 in 1.5 mi Calm Calm - 0.00 in Snow Light Snow
12:29 PM 19.4 °F - 17.6 °F 93% 29.71 in 1.5 mi Calm Calm - 0.00 in Snow Light Snow
12:53 PM 21.2 °F 16.4 °F 17.6 °F 86% 29.70 in - West 3.5 mph - 0.01 in Snow Light Snow
12:56 PM 21.0 °F 16.2 °F 18.0 °F 88% 29.73 in 2.0 mi West 3.5 mph - 0.01 in Snow Light Snow
1:07 PM 21.2 °F - 17.6 °F 86% 29.70 in 1.8 mi Calm Calm - 0.00 in Snow Light Snow
1:21 PM 21.2 °F - 17.6 °F 86% 29.70 in - Calm Calm - 0.00 in Snow Light Snow
1:28 PM 19.4 °F - 17.6 °F 93% 29.70 in 1.8 mi Calm Calm - 0.00 in Snow Light Snow
1:41 PM 21.2 °F - 17.6 °F 86% 29.70 in - Calm Calm - 0.00 in Snow Light Snow
1:54 PM 21.2 °F - 17.6 °F 86% 29.70 in - Calm Calm - 0.00 in Snow Light Snow
1:56 PM 21.0 °F - 18.0 °F 88% 29.73 in 3.0 mi Calm Calm - 0.00 in Snow Light Snow
2:07 PM 21.2 °F - 17.6 °F 86% 29.70 in 2.5 mi Calm Calm - 0.00 in Snow Light Snow
2:16 PM 21.2 °F - 17.6 °F 86% 29.70 in 5.0 mi Calm Calm - 0.00 in Snow Light Snow
2:54 PM 21.2 °F - 17.6 °F 86% 29.69 in 2.5 mi Calm Calm - 0.00 in Snow Light Snow
2:56 PM 21.0 °F - 18.0 °F 88% 29.73 in 2.5 mi Calm Calm - 0.00 in Snow Light Snow
3:22 PM 21.2 °F - 17.6 °F 86% 29.69 in 1.8 mi Calm Calm - 0.01 in Snow Light Snow
3:33 PM 21.2 °F - 17.6 °F 86% 29.69 in - Calm Calm - 0.01 in Snow Light Snow
3:54 PM 21.2 °F - 19.4 °F 93% 29.69 in 1.8 mi Calm Calm - 0.01 in Snow Light Snow
3:56 PM 21.0 °F - 19.0 °F 92% 29.72 in 1.8 mi Calm Calm - 0.01 in Snow Light Snow
4:23 PM 21.2 °F - 17.6 °F 86% 29.69 in - Calm Calm - 0.00 in Snow Light Snow
4:36 PM 21.2 °F - 17.6 °F 86% 29.69 in - Calm Calm - 0.00 in Snow Light Snow
4:43 PM 21.2 °F - 17.6 °F 86% 29.69 in - Calm Calm - 0.01 in Snow Light Snow
4:56 PM 21.9 °F - 18.0 °F 85% 29.72 in 2.5 mi Calm Calm - 0.01 in Snow Light Snow
5:38 PM 21.2 °F - 19.4 °F 93% 29.69 in - Calm Calm - 0.00 in Snow Light Snow
5:56 PM 19.9 °F - 19.0 °F 96% 29.73 in 6.0 mi Calm Calm - 0.00 in Snow Light Snow
6:50 PM 17.6 °F - 15.8 °F 93% 29.69 in 1.5 mi Calm Calm - 0.00 in   Mostly Cloudy
6:56 PM 18.0 °F - 15.1 °F 88% 29.73 in 1.2 mi Calm Calm - 0.00 in   Mostly Cloudy
7:01 PM 17.6 °F - 15.8 °F 93% 29.69 in 4.0 mi Calm Calm - N/A   Mostly Cloudy
7:56 PM 17.1 °F - 14.0 °F 88% 29.73 in 5.0 mi Calm Calm - 0.00 in Snow Light Snow
8:56 PM 17.1 °F - 14.0 °F 88% 29.73 in 10.0 mi Calm Calm - 0.00 in   Overcast
9:56 PM 18.0 °F - 15.1 °F 88% 29.73 in 5.0 mi Calm Calm - 0.00 in Snow Light Snow
10:56 PM 18.0 °F 11.1 °F 15.1 °F 88% 29.74 in 9.0 mi NE 4.6 mph - 0.00 in Snow Light Snow
11:56 PM 19.0 °F 13.9 °F 15.1 °F 85% 29.74 in 10.0 mi NNE 3.5 mph - 0.00 in   Overcast